RH
5 6 5 6 6 6 6 5 5 5 5 5 4 4 4 5 6 5 4 4 4 6 9 11 13 13 15 17 18 18 17 16 17 19 18 17 17 16 16 17 17 17 18 18 18 18 17 17 18 17 18 21 25 31 35 34 33 30 23 22 27 27 24 25 25 23 25 29 32 35 37 40 46 51 51 51 53 54 55 59 63 69 72 67 70 69 52
6 6 5 6 5 5 5 5 4 5 4 4 4 4 4 5 5 4 4 4 5 9 10 10 12 14 15 17 17 17 19 19 18 18 19 17 16 15 16 18 18 19 20 20 19 19 18 18 19 19 19 23 27 31 34 33 31 30 29 29 31 29 24 24 25 25 27 29 31 35 37 39 44 50 53 54 56 58 57 61 68 73 70 68 72 70 53
5 5 5 5 5 5 5 5 5 5 4 4 4 4 4 4 5 5 5 5 6 11 12 12 13 14 14 15 16 17 18 19 18 19 20 19 18 17 17 19 19 20 21 21 21 21 20 19 20 20 20 24 29 31 32 33 34 36 36 34 34 30 24 24 28 30 31 32 33 35 37 38 41 49 58 59 60 61 59 62 72 74 68 68 75 73 57
5 5 5 5 5 5 5 5 5 5 5 4 4 4 4 6 7 6 6 6 7 11 13 12 13 14 14 14 15 16 17 17 17 19 20 19 19 19 19 19 20 20 21 22 21 21 22 21 22 22 22 24 28 32 34 35 36 39 37 34 33 30 27 28 29 31 33 34 34 35 37 41 44 50 60 62 61 61 61 66 73 73 73 74 72 68 60
5 5 5 5 5 5 5 5 5 5 5 5 5 4 5 7 8 9 9 9 9 11 13 14 14 14 14 14 16 16 16 17 17 18 20 19 19 20 19 19 20 19 20 21 20 21 24 23 23 26 27 26 27 31 35 36 37 39 38 35 32 29 30 33 33 32 33 33 34 36 39 44 47 52 59 61 60 61 64 72 76 78 82 74 57 56 61
5 6 6 6 6 6 6 5 5 5 5 5 6 6 7 9 10 10 11 12 12 11 13 16 17 16 16 16 18 17 16 17 17 18 20 19 19 19 18 19 21 21 22 23 21 22 24 24 27 31 30 30 29 30 34 35 36 38 36 34 32 28 31 36 36 35 35 35 36 38 39 44 48 50 56 57 57 61 66 74 80 82 81 70 56 56 62
6 6 6 6 6 6 6 6 6 6 6 6 7 7 8 9 10 10 11 13 15 13 14 17 18 17 16 16 17 17 15 17 19 20 21 19 19 19 19 20 22 23 25 25 23 24 24 25 30 33 32 33 32 30 32 33 34 35 34 34 35 31 32 37 39 38 38 37 37 37 39 44 46 48 52 53 55 64 69 70 73 73 67 63 61 60 59
6 6 6 6 6 6 7 7 7 7 7 7 7 7 8 9 9 10 11 12 14 14 14 16 16 15 15 15 17 18 16 17 19 21 21 19 19 21 21 22 25 27 27 25 23 25 27 27 30 33 34 34 33 30 31 33 34 34 35 38 38 33 34 38 39 38 38 36 35 37 41 44 46 48 52 53 55 65 70 65 63 63 58 56 61 63 61
6 6 6 6 6 6 6 6 6 6 6 7 7 7 7 7 8 8 9 12 14 14 14 15 15 13 13 15 17 19 18 18 19 20 21 22 22 23 24 24 27 29 29 26 26 28 30 31 32 33 33 32 33 32 32 34 35 35 38 43 39 34 34 36 37 37 38 36 35 37 42 47 50 52 53 54 57 62 64 62 60 61 60 59 63 67 65
6 6 6 6 6 6 6 6 6 6 6 6 7 7 7 7 7 7 9 11 13 14 14 14 14 14 17 19 20 21 20 20 20 19 19 22 24 25 26 27 27 27 27 27 29 31 34 36 36 35 34 34 36 37 37 38 38 37 41 42 40 39 36 33 36 38 36 35 36 39 46 53 58 58 55 55 58 58 56 56 57 58 61 65 68 67 65
5 6 6 6 6 6 6 5 5 6 6 6 6 6 6 7 7 7 8 11 13 14 14 13 14 16 20 21 22 22 21 22 21 19 18 22 24 24 27 29 27 26 27 29 31 32 34 37 38 38 38 37 38 39 40 40 40 41 41 39 40 43 39 34 37 38 36 36 37 39 46 53 56 55 53 55 58 56 53 54 57 57 58 62 64 62 61
6 6 6 6 6 5 6 5 5 5 5 5 6 6 6 7 7 7 8 10 12 14 15 15 17 19 21 21 21 21 22 22 21 20 21 23 25 24 26 31 30 28 29 31 32 33 35 37 37 38 39 39 39 40 39 39 40 41 42 41 40 39 36 35 39 40 38 38 40 44 48 50 51 52 54 56 57 55 52 53 57 59 59 59 61 60 60
6 6 5 6 6 6 5 5 5 5 5 5 5 5 5 5 6 6 7 9 12 13 15 17 19 20 19 20 20 20 20 20 20 20 22 24 25 26 28 30 31 30 31 32 32 33 34 33 33 35 36 36 37 38 39 39 39 39 40 41 39 36 35 36 38 40 40 40 46 51 50 48 52 56 58 57 56 55 56 56 57 60 62 65 66 65 65
6 5 5 5 5 5 5 5 5 5 5 5 5 5 5 5 5 5 5 8 12 14 15 16 16 17 18 18 19 19 19 19 19 20 22 23 25 28 28 29 31 32 33 34 34 32 31 29 29 31 32 33 34 36 38 39 39 38 38 38 37 35 35 37 39 41 42 45 49 50 47 50 57 61 61 59 57 58 62 63 62 64 69 72 71 68 68
6 5 5 5 5 5 5 5 5 6 5 5 5 5 5 4 5 5 5 7 10 12 14 14 14 15 17 17 17 18 18 18 19 20 22 23 25 27 27 29 31 32 34 35 34 31 30 28 28 29 30 31 32 33 35 37 39 39 39 37 37 36 36 38 41 43 45 50 52 51 51 54 59 61 60 59 59 60 62 65 67 68 71 72 69 67 67
6 5 5 5 5 5 5 5 5 5 6 6 5 5 5 5 4 5 4 5 8 12 13 13 13 14 17 17 17 18 18 17 18 19 21 24 26 26 26 28 31 32 33 34 32 30 29 29 29 29 29 30 30 31 33 36 38 40 40 39 38 38 38 39 43 46 48 52 56 56 56 56 56 58 58 58 61 61 63 68 69 66 68 68 67 67 67
6 5 5 5 5 5 5 5 5 5 5 6 5 5 6 5 5 5 5 4 9 14 13 12 12 14 16 16 16 18 19 18 18 19 19 22 25 26 27 29 31 33 33 32 31 30 30 30 29 29 30 30 31 33 34 35 36 39 41 41 40 41 41 40 44 47 50 54 57 57 56 55 56 58 58 58 60 60 67 76 72 64 66 70 70 72 72
6 6 6 6 6 6 6 5 5 5 5 5 6 5 6 5 5 5 5 4 9 14 14 11 13 15 15 15 16 17 18 18 19 20 20 22 23 25 28 30 31 33 34 32 31 30 30 30 30 31 32 32 33 34 35 35 37 39 40 40 42 45 44 42 45 47 49 55 59 58 56 56 57 58 59 60 61 63 69 76 72 67 70 74 74 75 76
7 6 6 6 6 6 6 6 5 5 5 5 5 5 5 6 5 5 5 4 7 13 14 12 13 14 13 13 14 15 17 18 19 20 21 23 24 25 28 30 30 32 33 31 30 30 30 31 32 32 33 33 34 35 35 37 39 41 41 42 45 47 46 45 48 49 49 54 58 58 57 57 56 58 60 61 65 69 70 68 68 71 74 74 75 75 77
7 6 6 6 6 6 6 6 6 5 5 5 5 5 5 5 5 5 5 5 6 10 12 11 11 11 11 12 14 15 17 18 19 21 22 24 25 26 28 30 30 31 31 30 31 31 32 32 33 33 33 33 34 36 37 39 41 42 44 48 49 49 47 46 49 50 51 55 59 61 61 58 56 59 61 62 67 70 69 68 70 74 75 75 75 76 78
7 7 6 6 6 6 5 6 5 5 5 5 5 5 5 6 5 5 5 5 5 9 11 11 10 10 11 13 14 15 16 17 19 22 24 25 26 27 29 30 30 31 31 31 31 32 32 33 33 34 34 33 34 37 38 40 41 43 46 49 51 51 48 46 48 52 54 56 58 59 58 56 57 60 61 63 66 68 70 72 75 76 76 76 77 77 79
6 6 6 6 6 5 5 5 5 5 5 5 5 5 5 5 5 5 5 5 5 8 10 10 10 11 11 13 14 15 15 17 19 22 25 26 27 28 30 31 33 33 33 32 32 32 32 33 33 34 34 34 35 37 38 39 43 47 48 48 50 51 48 46 49 52 53 54 55 55 56 58 59 60 61 64 67 69 72 75 76 77 78 78 79 80 81
6 6 5 5 5 5 5 5 5 5 5 5 6 6 5 6 5 5 5 5 5 7 9 10 10 11 11 13 14 15 15 18 20 22 24 26 28 29 31 32 34 34 34 34 34 34 33 33 33 34 35 35 36 38 39 40 43 47 49 48 48 48 48 49 51 52 52 54 55 56 58 60 60 60 63 66 69 73 75 76 77 78 78 79 80 82 82
5 5 5 5 4 5 5 5 5 5 5 6 6 6 6 6 6 5 5 5 6 8 10 11 11 12 13 13 14 15 16 18 21 23 24 25 27 30 32 33 33 35 37 36 36 35 34 34 34 35 35 36 37 38 39 41 43 45 48 49 48 48 50 51 52 54 55 56 56 57 60 62 61 62 65 67 71 74 77 78 78 78 78 80 82 83 83
5 5 5 5 5 5 5 5 5 5 5 6 6 6 6 6 6 6 6 6 6 8 11 13 12 12 13 14 14 15 17 19 22 23 24 25 27 30 32 33 33 35 37 37 36 36 35 34 35 35 35 37 38 38 39 41 43 46 49 50 50 50 53 53 53 54 56 56 57 60 62 64 64 65 66 69 72 75 77 78 79 80 80 80 80 81 81
5 5 5 5 5 5 5 5 5 5 5 6 6 6 6 6 6 6 6 6 6 8 11 14 14 12 13 14 14 15 17 20 22 23 23 26 28 30 32 33 34 35 36 37 37 37 36 35 34 35 36 37 40 41 41 42 44 47 49 50 50 52 54 54 54 55 57 59 61 64 65 65 64 65 68 71 75 77 79 80 80 81 81 80 80 80 79
4 5 5 5 5 5 5 5 6 5 6 6 6 6 6 6 6 6 6 6 7 8 11 14 14 13 13 14 15 16 19 21 22 23 24 26 28 31 32 34 35 37 39 40 39 38 37 36 36 37 39 40 42 44 46 46 47 50 51 50 52 55 56 55 56 59 62 65 66 67 68 67 65 66 69 73 76 79 81 81 82 82 83 83 83 81 80
4 4 5 5 5 5 5 6 6 6 6 6 6 6 6 6 6 6 6 7 7 9 11 13 13 14 15 15 15 17 20 22 22 24 25 26 28 31 33 35 36 38 41 41 39 38 37 37 38 40 42 43 44 46 48 49 51 53 53 53 55 58 57 56 59 62 66 68 68 69 71 70 69 69 71 74 78 81 82 83 84 84 84 85 85 84 83
5 4 5 5 5 5 5 6 6 6 6 6 6 6 6 6 7 6 7 7 8 8 9 12 15 16 16 16 16 18 21 22 23 25 26 28 29 31 34 36 37 39 40 40 38 38 38 39 42 44 44 45 46 47 48 51 54 55 55 56 59 60 59 60 63 66 68 69 69 71 73 72 71 71 73 77 81 83 83 84 85 85 85 85 86 85 85
7 5 5 5 5 5 6 6 6 6 6 6 6 6 6 6 7 7 7 8 8 8 9 13 15 15 15 15 17 19 21 22 24 26 27 29 30 31 34 36 37 38 39 40 39 39 41 43 46 48 48 47 48 49 50 53 55 55 55 59 62 61 61 65 68 71 72 72 71 72 74 73 71 72 75 79 81 83 84 85 86 86 85 84 86 87 86
8 5 5 5 5 5 5 5 6 6 7 7 7 6 6 7 7 8 8 8 9 9 10 12 15 15 16 17 18 20 21 23 25 27 28 29 30 32 33 35 37 38 39 39 40 41 43 45 47 49 49 49 50 51 52 55 57 56 57 61 63 62 63 68 72 74 75 73 71 73 75 75 73 74 76 78 80 83 85 86 85 85 84 85 88 89 88
7 6 5 5 5 5 6 6 6 7 7 7 7 7 7 7 8 8 8 9 9 10 10 12 15 16 17 18 20 20 21 24 26 27 28 29 30 31 32 35 37 38 38 39 40 42 44 46 48 49 50 51 51 51 53 56 58 58 58 61 63 63 65 69 72 73 72 70 72 75 76 75 74 74 75 78 81 85 86 86 86 86 85 86 87 88 89
6 5 5 5 6 6 7 7 7 7 8 8 8 8 8 8 9 9 9 9 10 11 11 13 15 16 17 19 20 21 22 25 27 28 29 30 30 31 33 35 37 38 37 38 40 42 44 46 47 48 50 50 50 50 53 55 56 56 58 61 63 64 67 71 73 73 71 72 75 79 78 76 75 75 77 80 83 85 87 87 87 87 86 87 89 92 93
6 6 6 7 7 8 9 9 9 9 10 10 10 10 9 9 10 10 10 10 11 12 12 14 16 17 18 19 21 22 23 26 28 29 30 30 31 32 34 35 37 37 37 39 41 43 44 46 47 48 49 49 50 52 53 53 53 56 59 61 63 67 71 73 73 74 75 77 78 79 77 75 74 75 78 80 84 86 88 88 89 89 89 90 93 94 91
9 9 10 11 11 12 12 12 12 12 12 11 11 11 10 10 10 10 11 11 12 13 14 16 17 19 20 21 22 23 25 27 28 29 30 30 31 32 33 34 35 36 37 39 42 43 45 48 50 49 48 50 52 54 53 53 55 57 59 62 67 71 73 73 74 76 79 79 79 77 75 74 75 77 80 82 86 88 89 90 90 90 91 91 92 88 78
11 12 13 14 14 14 15 15 15 14 14 13 12 12 11 11 11 11 12 13 13 14 16 17 19 20 22 23 24 25 26 28 29 29 30 31 33 32 32 33 35 36 38 40 41 42 45 49 51 49 50 52 53 53 53 55 57 60 63 67 71 73 74 75 78 80 81 79 78 76 74 75 78 81 82 85 88 89 90 91 91 91 92 92 87 78 68
14 15 16 17 18 18 18 18 17 16 16 15 13 13 13 13 12 13 13 14 14 15 16 18 20 22 24 25 26 26 27 28 30 29 30 32 33 32 31 33 36 37 38 39 41 44 47 50 51 51 52 53 53 54 56 57 60 63 67 70 71 72 75 79 82 83 82 80 78 76 74 74 76 79 80 82 84 86 88 90 91 93 95 90 80 70 63
19 19 20 20 21 21 21 20 19 18 17 15 14 14 14 13 13 14 15 15 16 17 17 19 22 24 26 28 28 27 28 29 30 29 30 33 33 31 31 34 37 37 37 38 41 45 47 49 51 53 54 53 54 56 58 60 63 66 67 68 70 74 78 82 84 86 86 83 79 76 75 75 76 76 78 79 79 81 85 89 92 93 91 81 70 63 60
22 22 22 22 22 22 22 21 19 18 16 15 14 15 14 14 15 16 16 17 17 18 19 21 24 27 29 30 29 28 29 31 30 29 31 33 33 31 32 35 37 37 38 39 42 45 46 47 50 52 52 53 55 57 59 62 65 66 66 69 74 79 82 84 85 86 87 85 80 77 77 79 81 80 80 79 80 81 84 88 90 89 82 71 63 60 59
24 23 23 23 23 23 22 21 19 18 17 16 15 15 15 16 17 18 18 18 19 20 21 23 25 27 29 30 31 31 30 30 31 31 33 34 34 34 34 35 36 37 39 40 43 46 47 48 50 51 51 52 56 59 61 63 64 65 69 74 79 81 83 83 84 86 86 83 80 79 79 82 83 83 83 83 83 83 85 88 88 82 72 64 60 59 58
26 25 23 23 23 23 22 21 19 18 17 16 16 17 18 18 19 19 19 19 20 20 22 25 27 29 30 30 32 32 31 31 32 34 36 36 35 35 35 35 36 38 39 41 45 47 48 49 51 52 51 54 58 60 60 61 62 68 74 79 81 83 83 82 83 85 85 83 82 83 85 86 86 85 85 84 84 84 86 86 81 73 65 61 59 56 51
27 26 24 23 23 23 21 20 19 18 18 17 18 19 20 20 19 19 19 19 20 21 24 26 28 29 30 31 31 32 31 32 34 35 35 34 34 34 34 35 36 38 40 44 47 48 49 50 52 52 52 56 60 60 58 60 64 71 77 80 82 83 82 81 82 83 83 82 84 87 89 91 91 89 88 85 84 84 84 80 73 66 61 56 50 44 40
28 27 25 23 22 22 21 20 20 20 20 21 20 19 19 20 20 20 19 19 21 23 26 27 29 30 30 31 31 32 33 34 35 35 34 33 33 33 34 34 35 38 41 45 48 49 50 52 53 53 54 58 59 57 57 62 67 72 77 81 82 81 80 80 82 82 81 82 87 91 93 94 94 92 89 86 84 83 77 69 62 56 49 42 36 34 36
29 28 26 23 22 21 21 22 21 20 21 22 22 19 18 19 19 19 19 20 22 25 27 29 30 31 32 32 32 33 34 34 33 33 33 33 33 34 34 34 35 39 43 46 48 49 51 53 54 55 56 57 56 55 59 65 70 73 77 80 80 79 79 80 81 80 80 84 89 92 94 95 95 93 88 84 82 78 68 56 46 40 35 31 31 33 37
28 28 26 24 22 21 21 22 22 21 21 23 22 20 19 19 19 18 19 21 24 27 29 30 31 32 33 33 33 34 34 34 33 33 33 33 33 34 34 35 37 40 44 47 48 50 51 52 54 55 57 57 55 57 63 70 73 74 77 78 78 78 79 80 80 80 83 87 91 93 95 95 95 92 87 81 75 66 54 42 35 31 31 31 33 35 38
28 28 27 25 24 22 21 22 23 23 22 23 23 21 20 20 19 19 21 24 27 29 30 31 32 34 35 34 33 33 34 34 33 33 34 34 34 34 34 35 38 41 44 46 48 50 51 52 54 56 57 57 58 61 67 73 75 76 78 78 78 79 79 80 81 82 86 90 92 94 94 95 93 89 83 74 62 49 38 33 31 30 31 34 36 38 38
28 28 27 26 26 24 23 23 23 22 22 23 23 22 22 21 21 22 25 27 30 31 32 33 33 34 35 35 33 34 34 34 33 33 34 34 34 34 35 36 38 42 44 47 49 50 51 53 55 57 58 59 61 66 71 74 76 78 78 78 78 79 79 80 81 84 88 91 93 93 94 93 89 83 74 62 48 37 32 31 31 31 33 36 37 34 30
28 29 28 28 28 27 26 25 25 24 24 24 24 23 23 23 24 25 27 30 31 32 33 34 35 35 36 34 34 34 34 33 32 33 35 35 35 36 37 38 39 42 45 48 50 51 52 54 57 58 59 61 65 70 74 76 77 77 77 77 78 78 79 80 83 86 88 90 91 94 93 89 82 73 63 50 38 32 31 32 32 33 35 36 31 25 23
29 29 30 30 30 29 28 28 28 28 27 27 26 26 26 26 26 27 29 31 33 34 34 34 35 35 34 34 33 33 33 33 33 34 35 36 36 37 39 41 43 44 45 47 49 52 54 56 58 60 61 65 69 73 76 78 78 78 77 78 78 78 79 82 84 84 85 88 92 93 90 83 74 63 51 41 33 31 31 32 33 33 32 29 24 21 22
30 30 31 31 31 31 31 31 32 32 31 30 30 30 30 29 29 30 31 33 34 34 34 34 34 34 34 33 32 31 33 35 36 36 36 36 37 38 39 41 43 44 45 48 52 54 56 58 60 62 64 68 71 74 76 78 78 77 77 78 78 79 81 83 82 81 83 88 91 89 83 74 65 54 44 37 33 30 27 25 26 25 22 20 19 20 24
31 32 32 33 33 33 33 34 34 34 34 33 32 33 33 33 32 33 34 34 35 34 34 34 34 34 33 33 32 32 34 36 37 36 36 37 38 39 39 40 41 43 46 51 55 56 57 59 62 65 67 70 72 75 77 77 77 76 77 78 79 79 80 79 78 79 81 84 84 82 75 66 57 48 40 35 30 25 18 15 15 16 16 16 18 20 24
31 33 33 34 33 34 34 34 34 34 34 34 35 35 36 36 36 36 36 36 36 35 35 35 35 34 34 34 34 34 34 36 36 36 37 38 39 39 38 39 41 45 50 54 56 57 58 60 64 67 69 71 73 76 77 77 76 76 77 79 80 80 78 76 76 77 78 78 78 75 68 59 50 42 34 27 22 17 15 13 13 13 15 16 18 20 23